Regional Weather Roundup
Issued by NWS Sioux Falls, SD

Home | Current Version | Previous Version | Text Only | Print | Product List | Glossary On
Versions: 1 2 3 4 5 6 7 8 9 10 11 12 13 14 15 16 17 18 19 20 21 22 23 24 25 26 27 28 29 30 31 32 33 34 35 36 37 38 39 40 41 42 43 44 45 46 47 48 49 50
000
ASUS43 KFSD 272002
RWRFSD

WEATHER ROUNDUP FOR SE SOUTH DAKOTA/SW MINNESOTA/NW IOWA
NATIONAL WEATHER SERVICE SIOUX FALLS SD
300 PM CDT MON APR 27 2015

NOTE: "FAIR" INDICATES FEW OR NO CLOUDS BELOW 12,000 FEET WITH NO
SIGNIFICANT WEATHER AND OR OBSTRUCTIONS TO VISIBILITY.


SDZ038>040-050-052>070-272100-
SOUTHEAST SOUTH DAKOTA

CITY           SKY/WX    TMP DP  RH WIND       PRES   REMARKS
BROOKINGS      SUNNY     64  21  19 CALM      30.21S
CHAMBERLAIN    NOT AVBL
HURON          SUNNY     70  20  15 E5        30.19F
MADISON        FAIR      66  19  16 NE8       30.20F
MITCHELL       SUNNY     68  27  21 VRB5      30.20F
SIOUX FALLS    PTSUNNY   67  29  24 S5        30.18F
WINNER         FAIR      70  29  21 VRB6      30.21S
YANKTON        SUNNY     66  28  24 E5        30.18S
$$

MNZ071-072-080-081-089-090-097-098-272100-
SOUTHWEST MINNESOTA

CITY           SKY/WX    TMP DP  RH WIND       PRES   REMARKS
FAIRMONT       SUNNY     66  27  22 E10G16    30.18F
JACKSON        SUNNY     68  19  15 E7        30.20F
LUVERNE        SUNNY     68  21  17 NE6       30.19F
MARSHALL       SUNNY     66  21  18 S7        30.20S
MONTEVIDEO     SUNNY     72  21  15 CALM      30.20F
REDWOOD FALLS  SUNNY     68  21  16 VRB3      30.19F
TRACY          SUNNY     68  22  17 N10       30.20F
WORTHINGTON    SUNNY     64  25  22 E12       30.19F
$$

IAZ001>003-012>014-020>022-031-032-NEZ013-014-SDZ071-272100-
NORTHWEST IOWA

CITY           SKY/WX    TMP DP  RH WIND       PRES   REMARKS
DENISON        SUNNY     66  28  24 NE12G21   30.14F
ESTHERVILLE    SUNNY     65  29  25 NE16      30.18F
SIOUX CITY     SUNNY     70  24  17 VRB5      30.16F
SPENCER        SUNNY     68  28  22 NE12G21   30.18F
$$

ABBREVIATIONS USED IN REMARKS
   TC - TEMPERATURE IN CELSIUS
  WCI - WIND CHILL INDEX
   HX - HEAT INDEX
  VSB - VISIBILITY




USA.gov is the U.S. government's official web portal to all federal, state and local government web resources and services.